RH
19 16 14 19 29 33 45 57 53 57 62 77 78 93 90 86 90 95 100 96 84 87 82 80 94 91 96 92 96 92 81 80
21 19 17 16 30 33 42 56 54 60 61 66 76 85 90 87 84 87 92 96 99 94 90 90 90 89 95 82 86 92 87 82
20 20 17 15 22 30 40 54 54 58 60 63 70 73 77 85 85 83 86 99 88 100 100 98 97 93 100 81 82 96 87 85
21 20 18 17 19 25 36 48 54 59 62 69 74 80 84 92 90 87 88 89 100 96 99 99 98 99 99 85 80 79 86 86
21 20 22 18 20 27 41 47 54 60 64 68 71 67 66 71 79 82 94 89 86 98 100 99 100 98 96 98 78 74 82 80
19 20 19 20 37 31 44 46 54 59 63 68 68 73 72 74 86 98 99 96 91 94 96 100 99 99 99 100 78 64 66 76
19 20 24 24 39 56 52 47 54 58 65 68 68 68 66 78 90 92 99 99 99 97 99 96 99 99 99 99 83 66 54 74
19 20 19 26 31 47 58 51 56 57 64 67 68 60 69 73 86 91 98 96 100 95 97 96 100 98 99 95 95 64 73 73
24 21 18 19 30 45 58 54 55 59 62 66 69 61 70 74 83 86 99 98 99 100 93 97 97 99 99 100 97 75 87 82
33 23 22 22 32 41 54 55 53 60 60 66 69 58 70 73 85 91 93 100 98 99 95 90 99 98 100 100 98 91 79 87
50 25 27 35 45 62 75 60 54 58 59 67 68 57 68 76 86 86 89 88 99 100 98 98 97 100 97 98 96 82 94 94
64 51 56 62 70 95 91 68 62 61 64 66 68 62 68 81 88 88 87 89 88 97 100 98 95 93 88 87 91 90 96 91
84 84 84 94 95 99 99 84 70 71 72 70 65 62 65 80 89 90 91 89 90 92 96 100 100 99 99 95 90 93 96 100
100 98 95 94 100 100 99 92 80 80 82 77 74 71 65 70 78 86 90 93 95 96 95 98 99 100 100 90 91 96 95 94
100 100 100 100 99 93 90 87 86 86 87 90 84 83 81 74 74 76 80 91 95 97 98 96 96 97 99 100 98 94 86 89
100 100 100 100 100 100 100 99 95 93 98 97 92 89 89 84 85 84 83 80 81 87 93 94 95 95 96 100 99 97 92 80
100 100 100 100 98 100 100 100 97 91 100 100 100 100 98 94 91 90 92 93 91 88 86 84 89 92 93 93 91 87 83 76
99 100 100 100 98 100 100 81 93 94 99 99 100 100 100 100 100 99 98 97 96 95 95 96 94 90 87 87 94 100 99 92
95 96 92 94 99 100 100 98 98 99 99 99 99 100 100 100 100 100 100 100 100 100 99 98 98 98 99 100 100 100 100 95
Wind_Speed
22 23 31 39 38 36 33 30 24 20 19 20 19 21 22 20 21 21 20 29 28 25 29 26 28 33 31 36 38 38 37 33
22 23 27 40 42 40 38 34 29 25 24 23 22 23 23 23 24 23 22 24 32 32 29 33 30 34 33 37 40 40 37 35
27 25 26 37 43 43 40 38 33 29 25 22 22 21 21 22 22 24 28 24 27 35 37 32 36 37 37 40 44 42 38 36
29 26 25 37 43 44 43 41 35 31 26 24 22 21 20 25 26 31 31 32 25 33 36 34 36 35 38 39 43 45 44 37
30 26 24 35 44 44 43 42 37 32 28 24 24 22 21 23 22 21 28 35 36 29 29 34 34 34 39 42 46 45 47 45
28 24 18 28 43 45 45 42 37 32 28 24 23 21 20 18 17 20 23 26 29 31 33 32 34 35 37 42 44 47 47 48
24 16 16 26 39 44 44 43 38 34 28 25 23 20 20 19 17 15 13 14 26 27 27 32 32 30 32 37 47 46 48 49
16 17 19 28 40 46 45 44 40 34 29 26 23 19 20 19 15 16 14 13 16 26 28 32 33 28 36 34 45 49 48 48
20 22 19 31 39 46 47 46 41 36 30 26 23 19 21 18 15 17 15 16 14 16 20 22 28 33 34 41 51 56 52 45
15 15 23 33 39 44 49 46 42 36 28 25 24 21 21 18 16 16 15 15 14 12 12 13 17 22 28 37 46 45 51 48
12 17 24 31 34 38 44 45 41 35 27 24 23 20 20 18 17 18 17 14 16 15 12 15 19 22 28 34 41 45 46 48
5 11 19 24 29 33 39 42 38 31 26 21 22 19 19 18 18 18 18 17 15 15 19 19 20 20 27 38 41 42 43 43
7 8 10 16 21 26 32 35 33 28 23 18 17 17 17 17 17 19 19 20 20 18 19 22 26 25 25 28 34 39 38 43
18 12 9 10 15 20 27 29 27 24 19 17 16 13 17 17 16 17 18 21 22 22 23 25 27 30 31 30 32 34 37 40
30 31 20 12 8 8 14 17 18 16 17 17 15 12 12 16 15 15 19 21 22 22 24 25 27 30 34 37 36 33 37 39
32 31 27 22 15 11 10 8 10 12 15 16 17 14 10 10 17 17 16 17 20 22 24 26 27 30 34 40 42 41 40 42
26 26 28 24 26 17 11 10 9 7 8 9 12 14 14 13 12 14 17 18 18 19 21 25 29 31 32 33 35 37 38 42
27 28 25 25 20 17 14 14 6 7 9 9 10 10 11 12 12 14 16 18 17 19 21 24 26 27 29 32 34 36 39 41
23 21 23 21 16 13 13 11 10 10 9 7 5 7 10 12 14 16 18 20 22 19 19 19 23 27 29 29 31 35 39 41
Wind_Direction
276 265 251 241 233 234 229 224 223 216 215 214 217 217 215 219 232 224 222 215 213 209 206 204 201 196 200 198 200 194 195 191
293 290 254 241 231 230 227 221 220 217 216 216 220 222 223 220 223 227 226 226 220 225 226 219 210 207 206 198 199 195 191 193
283 298 252 235 228 226 223 220 220 221 221 222 227 229 232 226 226 227 224 222 228 223 226 228 215 209 204 202 201 194 194 191
279 288 252 232 227 223 218 219 218 220 221 222 226 229 228 224 230 223 222 223 222 222 226 228 224 210 209 205 205 204 200 193
272 277 246 234 225 219 215 217 218 218 221 224 229 238 239 234 237 228 224 223 229 217 213 223 221 217 220 215 207 204 209 200
258 264 251 237 225 217 212 214 217 219 221 225 231 239 243 235 228 229 230 230 222 224 221 227 226 223 220 217 204 205 210 211
251 254 241 232 223 217 212 213 215 218 219 224 227 237 238 230 225 218 210 212 212 207 221 229 228 229 227 216 213 205 205 212
234 230 233 227 224 220 213 212 214 216 217 222 225 230 229 231 222 199 189 203 202 208 216 217 226 233 241 233 215 199 202 207
249 239 234 232 224 222 215 210 213 215 216 221 224 228 224 222 213 209 201 194 196 200 204 219 229 229 233 229 204 203 201 204
259 249 239 230 222 221 215 209 212 215 216 221 222 226 221 217 213 209 208 203 207 205 206 204 208 224 233 221 214 205 199 209
281 246 237 228 222 216 212 209 212 213 215 221 225 227 223 219 212 214 215 210 211 215 223 214 209 212 207 196 197 199 205 214
335 202 210 215 211 208 208 206 208 213 217 221 225 226 228 224 219 218 218 224 223 214 217 212 209 214 214 207 206 209 216 221
119 153 171 190 198 204 207 204 205 212 218 228 231 231 227 224 223 223 223 227 233 230 226 225 225 226 229 224 221 224 227 225
79 104 134 168 189 195 201 202 203 213 223 232 236 236 228 226 228 226 229 233 236 241 239 237 235 234 231 227 228 239 245 238
53 67 82 101 128 172 197 202 213 223 233 233 243 249 245 231 234 236 237 239 242 244 246 244 242 240 237 233 240 252 249 243
48 61 73 80 96 120 142 166 200 224 238 242 247 252 254 246 238 242 248 247 248 250 252 252 250 247 244 245 249 254 251 247
47 56 70 64 71 76 124 164 183 212 234 253 256 253 255 253 245 246 250 253 255 258 259 259 257 257 256 255 255 255 253 251
45 47 52 61 58 53 65 73 81 150 193 217 232 245 253 260 266 266 260 257 259 262 265 266 266 268 267 266 265 263 261 259
55 47 49 55 63 59 73 86 95 126 152 167 193 224 231 240 240 249 264 269 265 269 276 281 281 281 279 277 273 264 259 260